When you browse on this site, cookies collect data to enhance your experience and personalize the content and advertising you see.
Visit our Privacy Policy to learn more. By continuing to use the site, you agree to this use of cookies and data.
  • In Czech Republic
  • List of Countries
  • For 7 days
  • Water Temperature
  • Weather Map
  • Weather Widgets
  • user-avatar
    Login

    Hourly Weather Sala

    Today, 20 February, Thursday

    Time Temperature Precipitation Wind Pressure Humidity
    00:00 +16°C° 0 mm 5 mps 761 mmHg 63%
    01:00 +15°C° 0 mm 4 mps 760 mmHg 68%
    02:00 +14°C° 0 mm 4 mps 760 mmHg 73%
    03:00 +13°C° 0 mm 3 mps 759 mmHg 78%
    04:00 +13°C° 0 mm 3 mps 759 mmHg 79%
    05:00 +13°C° 0 mm 3 mps 760 mmHg 80%
    06:00 +13°C° 0 mm 2 mps 760 mmHg 81%
    07:00 +15°C° 0 mm 2 mps 760 mmHg 76%
    08:00 +16°C° 0 mm 1 mps 760 mmHg 71%
    09:00 +19°C° 0 mm 1 mps 760 mmHg 66%
    10:00 +21°C° 0 mm 1 mps 760 mmHg 59%
    11:00 +23°C° 0 mm 2 mps 760 mmHg 52%
    12:00 +25°C° 0 mm 2 mps 760 mmHg 46%
    13:00 +25°C° 0 mm 2 mps 759 mmHg 48%
    14:00 +25°C° 0 mm 3 mps 759 mmHg 50%
    15:00 +25°C° 0 mm 3 mps 759 mmHg 51%
    16:00 +23°C° 0.1 mm 2 mps 759 mmHg 63%
    17:00 +19°C° 0.1 mm 2 mps 759 mmHg 74%
    18:00 +18°C° 0.1 mm 1 mps 760 mmHg 85%
    19:00 +17°C° 0.1 mm 2 mps 760 mmHg 82%
    20:00 +16°C° 0.1 mm 2 mps 761 mmHg 80%
    21:00 +16°C° 0.1 mm 3 mps 761 mmHg 78%
    22:00 +16°C° 0 mm 3 mps 761 mmHg 74%
    23:00 +16°C° 0 mm 2 mps 761 mmHg 70%

    Tomorrow, 21 February, Friday

    Time Temperature Precipitation Wind Pressure Humidity
    00:00 +16°C° 0 mm 2 mps 761 mmHg 67%
    01:00 +16°C° 0 mm 2 mps 761 mmHg 68%
    02:00 +14°C° 0 mm 3 mps 760 mmHg 69%
    03:00 +13°C° 0 mm 3 mps 760 mmHg 70%
    04:00 +13°C° 0 mm 3 mps 760 mmHg 71%
    05:00 +13°C° 0 mm 3 mps 760 mmHg 71%
    06:00 +12°C° 0 mm 3 mps 760 mmHg 72%
    13:00 +26°C° 0 mm 5 mps 761 mmHg 39%
    14:00 +27°C° 0 mm 5 mps 761 mmHg 39%
    15:00 +27°C° 0 mm 5 mps 760 mmHg 39%
    16:00 +25°C° 0 mm 5 mps 761 mmHg 46%
    17:00 +22°C° 0 mm 5 mps 761 mmHg 53%
    18:00 +21°C° 0 mm 5 mps 761 mmHg 60%
    19:00 +19°C° 0 mm 5 mps 761 mmHg 60%
    20:00 +17°C° 0 mm 5 mps 762 mmHg 61%
    21:00 +16°C° 0 mm 6 mps 762 mmHg 61%
    22:00 +15°C° 0 mm 6 mps 762 mmHg 59%
    23:00 +15°C° 0 mm 5 mps 762 mmHg 56%

    Day after tomorrow, 22 February, Saturday

    Time Temperature Precipitation Wind Pressure Humidity
    00:00 +14°C° 0 mm 5 mps 762 mmHg 54%
    01:00 +14°C° 0 mm 5 mps 762 mmHg 54%
    02:00 +13°C° 0 mm 4 mps 762 mmHg 55%
    03:00 +13°C° 0 mm 4 mps 762 mmHg 56%
    04:00 +13°C° 0 mm 4 mps 762 mmHg 56%
    05:00 +12°C° 0 mm 4 mps 762 mmHg 56%
    06:00 +12°C° 0 mm 5 mps 762 mmHg 55%
    07:00 +14°C° 0 mm 4 mps 763 mmHg 52%
    08:00 +17°C° 0 mm 4 mps 763 mmHg 48%
    09:00 +19°C° 0 mm 4 mps 763 mmHg 44%
    10:00 +21°C° 0 mm 4 mps 763 mmHg 40%
    11:00 +23°C° 0 mm 4 mps 763 mmHg 36%
    12:00 +26°C° 0 mm 4 mps 763 mmHg 32%
    13:00 +27°C° 0 mm 4 mps 763 mmHg 32%
    14:00 +27°C° 0 mm 4 mps 762 mmHg 33%
    15:00 +28°C° 0 mm 5 mps 762 mmHg 33%
    16:00 +26°C° 0 mm 5 mps 762 mmHg 41%
    17:00 +23°C° 0 mm 5 mps 762 mmHg 49%
    18:00 +21°C° 0 mm 5 mps 762 mmHg 57%
    19:00 +19°C° 0 mm 5 mps 763 mmHg 59%
    20:00 +17°C° 0 mm 5 mps 763 mmHg 60%
    21:00 +15°C° 0 mm 4 mps 763 mmHg 61%
    22:00 +15°C° 0 mm 4 mps 763 mmHg 59%
    23:00 +15°C° 0 mm 4 mps 763 mmHg 57%

    23 February, Sunday

    Time Temperature Precipitation Wind Pressure Humidity
    00:00 +14°C° 0 mm 4 mps 763 mmHg 55%
    01:00 +14°C° 0 mm 3 mps 763 mmHg 53%
    02:00 +14°C° 0 mm 3 mps 763 mmHg 50%
    03:00 +15°C° 0 mm 2 mps 763 mmHg 48%
    04:00 +15°C° 0 mm 2 mps 763 mmHg 46%
    05:00 +15°C° 0 mm 2 mps 763 mmHg 44%
    06:00 +15°C° 0 mm 2 mps 763 mmHg 43%
    07:00 +18°C° 0 mm 1 mps 763 mmHg 40%
    08:00 +20°C° 0 mm 1 mps 764 mmHg 38%
    09:00 +22°C° 0 mm 1 mps 764 mmHg 35%
    10:00 +24°C° 0 mm 1 mps 764 mmHg 32%
    11:00 +26°C° 0 mm 1 mps 764 mmHg 29%
    12:00 +28°C° 0 mm 1 mps 764 mmHg 26%
    13:00 +28°C° 0 mm 2 mps 763 mmHg 26%
    14:00 +28°C° 0 mm 3 mps 763 mmHg 27%
    15:00 +29°C° 0 mm 4 mps 763 mmHg 28%
    16:00 +26°C° 0 mm 4 mps 763 mmHg 37%
    17:00 +24°C° 0 mm 3 mps 763 mmHg 46%
    18:00 +21°C° 0 mm 3 mps 763 mmHg 55%
    19:00 +19°C° 0 mm 3 mps 763 mmHg 58%
    20:00 +18°C° 0 mm 2 mps 764 mmHg 61%
    21:00 +17°C° 0 mm 2 mps 764 mmHg 64%
    22:00 +16°C° 0 mm 2 mps 764 mmHg 62%
    23:00 +16°C° 0 mm 1 mps 764 mmHg 60%

    24 February, Monday

    Time Temperature Precipitation Wind Pressure Humidity
    00:00 +16°C° 0 mm 1 mps 764 mmHg 58%
    01:00 +15°C° 0 mm 1 mps 764 mmHg 57%
    02:00 +15°C° 0 mm 1 mps 764 mmHg 55%
    03:00 +15°C° 0 mm 1 mps 764 mmHg 54%
    04:00 +15°C° 0 mm 1 mps 764 mmHg 54%
    05:00 +14°C° 0 mm 1 mps 764 mmHg 54%
    06:00 +14°C° 0 mm 1 mps 764 mmHg 55%
    07:00 +16°C° 0 mm 1 mps 764 mmHg 50%
    08:00 +20°C° 0 mm 1 mps 764 mmHg 45%
    09:00 +22°C° 0 mm 1 mps 765 mmHg 41%
    10:00 +24°C° 0 mm 1 mps 765 mmHg 36%
    11:00 +26°C° 0 mm 1 mps 765 mmHg 32%
    12:00 +28°C° 0 mm 1 mps 765 mmHg 28%
    13:00 +28°C° 0 mm 2 mps 764 mmHg 29%
    14:00 +28°C° 0 mm 3 mps 764 mmHg 31%
    15:00 +28°C° 0 mm 3 mps 763 mmHg 32%
    16:00 +25°C° 0 mm 3 mps 763 mmHg 41%
    17:00 +23°C° 0 mm 2 mps 764 mmHg 50%
    18:00 +19°C° 0 mm 2 mps 764 mmHg 58%
    19:00 +19°C° 0 mm 1 mps 764 mmHg 59%
    20:00 +18°C° 0 mm 1 mps 765 mmHg 59%
    21:00 +15°C° 0 mm 0 mps 765 mmHg 59%
    22:00 +15°C° 0 mm 1 mps 765 mmHg 58%
    23:00 +15°C° 0 mm 1 mps 765 mmHg 57%

    25 February, Tuesday

    Time Temperature Precipitation Wind Pressure Humidity
    00:00 +15°C° 0 mm 1 mps 765 mmHg 56%
    01:00 +15°C° 0 mm 1 mps 765 mmHg 58%
    02:00 +14°C° 0 mm 1 mps 765 mmHg 61%
    03:00 +14°C° 0 mm 1 mps 765 mmHg 64%
    04:00 +13°C° 0 mm 1 mps 765 mmHg 65%
    05:00 +13°C° 0 mm 1 mps 765 mmHg 67%
    06:00 +12°C° 0 mm 1 mps 765 mmHg 68%
    07:00 +14°C° 0 mm 1 mps 765 mmHg 62%
    08:00 +16°C° 0 mm 1 mps 765 mmHg 56%
    09:00 +19°C° 0 mm 1 mps 765 mmHg 50%
    10:00 +21°C° 0 mm 1 mps 765 mmHg 46%
    11:00 +23°C° 0 mm 2 mps 765 mmHg 42%
    12:00 +24°C° 0 mm 2 mps 765 mmHg 39%
    13:00 +24°C° 0 mm 3 mps 765 mmHg 39%
    14:00 +24°C° 0 mm 3 mps 765 mmHg 39%
    15:00 +25°C° 0 mm 3 mps 764 mmHg 40%
    16:00 +21°C° 0 mm 3 mps 764 mmHg 49%
    17:00 +19°C° 0 mm 3 mps 764 mmHg 58%
    18:00 +17°C° 0 mm 3 mps 764 mmHg 68%
    19:00 +14°C° 0 mm 3 mps 764 mmHg 74%
    20:00 +13°C° 0 mm 2 mps 765 mmHg 81%
    21:00 +12°C° 0 mm 2 mps 765 mmHg 87%
    22:00 +12°C° 0 mm 2 mps 765 mmHg 86%
    23:00 +12°C° 0 mm 2 mps 765 mmHg 85%
    Show more